EHI
0 0 0 0 0 0 0 0 0 0 0 0 0 0 0 0 0 0 0 0 0 0 0 0 0 0 0 0 0 0 0 0 0 0 0 0 0 0
0 0 0 0 0 0 0 0 0 0 0 0 0 0 0 0 0 0 0 0 0 0 0 0 0 0 0 0 0 0 0 0 0 0 0 0 0 0
0 0 0 0 0 0 0 0 0 0 0 0 0 0 0 0 0 0 0 0 0 0 0 0 0 0 0 0 0 0 0 0 0 0 0 0 0 0
0 0 0 0 0 0 0 0 0 0 0 0 0 0 0 0 0 0 0 0 0 0 0 0 0 0 0 0 0 0 0 0 0 0 0 0 0 0
0 0 0 0 0 0 0 0 0 0 0 0 0 0 0 0 0 0 0 0 0 0 0 0 0 0 0 0 0 0 0 0 0 0 0 0 0 0
0 0 0 0 0 0 0 0 0 0 0 0 0 0 0 0 0 0 0 0 0 0 0 0 0 0 0 0 0 0 0 0 0 0 0 0 0 0
0 0 0 0 0 0 0 0 0 0 0 0 0 0 0 0 0 0 0 0 0 0 0 0 0 0 0 0 0 0 0 0 0 0 0 0 0 0
0 0 0 0 0 0 0 0 0 0 0 0 0 0 0 0 0 0 0 0 0 0 0 0 0 0 0 0 0 0 0 0 0 0 0 0 0 0
0 0 0 0 0 0 0 0 0 0 0 0 0 0 0 0 0 0 0 0 0 0 0 0 0 0 0 0 0 0 0 0 0 0 0 0 0 0
0 0 0 0 0 0 0 0 0 0 0 0 0 0 0 0 0 0 0 0 0 0 0 0 0 0 0 0 0 0 0 0 0 0 0 0 0 0
0 0 0 0 0 0 0 0 0 0 0 0 0 0 0 0 0 0 0 0 0 0 0 0 0 0 0 0 0 0 0 0 0 0 0 0 0 0
0 0 0 0 0 0 0 0 0 0 0 0 0 0 0 0 0 0 0 0 0 0 0 0 0 0 0 0 0 0 0 0 0 0 0 0 0 0
0 0 0 0 0 0 0 0 0 0 0 0 0 0 0 0 0 0 0 0 0 0 0 0 0 0 0 0 0 0 0 0 0 0 0 0 0 0
0 0 0 0 0 0 0 0 0 0 0 0 0 0 0 0 0 0 0 0 0 0 0 0 0 0 0 0 0 0 0 0 0 0 0 0 0 0
0 0 0 0 0 0 0 0 0 0 0 0 0 0 0 0 0 0 0 0 0 0 0 0 0 0 0 0 0 0 0 0 0 0 0 0 0 0
0 0 0 0 0 0 0 0 0 0 0 0 0 0 0 0 0 0 0 0 0 0 0 0 0 0 0 0 0 0 0 0 0 0 0 0 0 0
0 0 0 0 0 0 0 0 0 0 0 0 0 0 0 0 0 0 0 0 0 0 0 0 0 0 0 0 0 0 0 0 0 0 0 0 0 0
0 0 0 0 0 0 0 0 0 0 0 0 0 0 0 0 0 0 0 0 0 0 0 0 0 0 0 0 0 0 0 0 0 0 0 0 0 0
0 0 0 0 0 0 0 0 0 0 0 0 0 0 0 0 0 0 0 0 0 0 0 0 0 0 0 0 0 0 0 0 0 0 0 0 0 0
0 0 0 0 0 0 0 0 0 0 0 0 0 0 0 0 0 0 0 0 0 0 0 0 0 0 0 0 0 0 0 0 0 0 0 0 0 0
0 0 0 0 0 0 0 0 0 0 0 0 0 0 0 0 0 0 0 0 0 0 0 0 0 0 0 0 0 0 0 0 0 0 0 0 0 0
0 0 0 0 0 0 0 0 0 0 0 0 0 0 0 0 0 0 0 0 0 0 0 0 0 0 0 0 0 0 0 0 0 0 0 0 0 0
0 0 0 0 0 0 0 0 0 0 0 0 0 0 0 0 0 0 0 0 0 0 0 0 0 0 0 0 0 0 0 0 0 0 0 0 0 0
Wind_Speed
2 2 2 2 2 2 1 2 2 3 4 3 2 2 2 1 3 2 2 5 6 6 5 5 5 5 5 5 5 6 5 5 5 5 6 6 7 7
2 2 3 2 2 2 2 2 2 3 4 3 2 2 2 2 4 2 3 6 7 7 6 6 6 6 6 6 6 6 6 6 6 7 7 7 7 8
3 3 3 2 2 2 2 2 2 2 4 4 2 2 2 3 3 3 3 3 4 7 7 7 8 8 8 8 8 8 7 7 7 8 8 9 9 9
4 4 4 3 3 3 2 3 3 3 4 5 3 2 3 3 3 3 3 3 3 6 8 9 9 9 9 9 9 9 8 8 8 9 9 9 9 9
4 4 4 4 4 3 3 3 3 3 3 4 5 3 2 2 2 3 3 3 4 5 7 8 9 9 9 9 9 9 9 9 9 9 9 9 10 10
4 4 4 5 5 5 4 4 4 3 3 4 4 3 2 2 2 2 3 3 3 3 5 6 8 9 9 9 9 9 9 10 11 11 10 10 10 11
4 4 5 6 7 6 5 5 5 4 4 4 4 3 3 2 3 2 3 2 3 3 3 3 3 3 5 7 9 9 10 10 11 11 11 11 11 11
4 4 5 6 8 10 10 9 8 6 6 5 5 5 5 4 3 3 3 2 4 3 3 4 3 4 4 4 8 10 11 11 11 11 11 11 11 11
5 4 4 5 7 5 7 10 9 11 11 7 7 7 6 5 4 4 4 4 5 3 3 5 3 5 4 5 10 11 11 11 11 11 11 11 11 11
5 5 5 5 6 6 5 6 6 7 8 7 6 6 6 5 6 6 5 4 3 3 3 4 3 4 4 4 9 11 11 10 11 11 11 11 12 12
5 6 6 6 9 10 7 6 6 6 9 11 11 10 10 9 7 3 3 3 4 3 2 3 3 3 3 4 6 10 10 10 11 12 12 13 12 12
5 6 8 9 10 10 6 5 7 6 5 6 7 7 6 7 9 6 5 5 4 3 3 2 2 2 3 3 3 3 5 9 11 12 12 12 12 7
5 4 5 10 11 11 9 6 8 7 5 5 4 4 4 4 5 4 4 5 5 4 3 2 3 3 4 4 4 3 4 4 5 7 9 12 12 9
5 4 5 10 11 11 8 8 10 8 4 4 4 4 4 4 4 4 4 5 5 5 5 4 4 4 4 5 5 3 3 4 4 5 4 8 10 11
5 7 9 10 10 7 10 10 7 4 4 4 4 4 4 4 3 3 3 3 4 4 4 5 5 4 5 5 5 5 5 4 4 4 4 4 5 5
5 7 10 10 8 7 7 5 4 4 4 4 4 3 2 2 3 3 3 3 3 4 4 5 5 5 5 6 5 5 5 4 4 4 4 5 5 5
4 3 3 3 3 3 3 3 3 3 3 3 3 3 3 3 3 3 3 3 4 4 4 3 3 3 5 5 5 6 5 5 5 4 4 6 6 5
5 3 4 3 3 3 3 3 3 3 3 3 3 3 3 3 3 3 3 4 4 4 4 3 2 2 2 3 6 6 5 4 4 4 4 6 7 6
4 3 3 3 3 3 3 3 3 3 2 3 3 3 3 3 3 3 3 4 4 4 4 3 3 3 4 5 5 5 5 4 4 5 5 5 7 7
3 3 3 3 3 3 3 3 2 2 2 2 2 3 3 3 3 4 4 4 4 4 4 4 4 4 5 5 5 6 7 5 4 5 5 5 5 7
3 3 3 3 3 3 3 3 3 2 2 2 2 3 3 3 4 4 4 6 5 4 5 5 5 5 2 1 3 4 4 6 6 5 5 5 5 5
3 3 3 3 3 2 2 2 2 2 2 2 3 3 3 3 4 4 4 4 4 4 5 4 2 2 2 3 4 5 5 4 5 7 8 7 4 5
3 3 3 3 2 2 2 2 3 3 3 3 3 3 3 3 3 4 4 4 4 4 3 3 2 2 3 3 4 4 4 4 3 3 4 6 8 9
Wind_Direction
229 228 234 239 233 236 231 208 210 249 258 243 229 222 219 217 241 226 223 255 261 264 268 274 277 276 280 287 284 273 266 266 271 273 274 276 279 281
232 233 242 248 246 242 232 239 233 229 250 252 251 251 236 250 251 244 241 259 260 263 265 268 273 272 269 269 272 270 269 267 265 265 269 272 277 280
240 236 241 244 239 246 242 237 248 243 255 269 271 246 228 241 252 247 241 241 248 255 258 261 264 266 266 264 261 259 260 262 262 264 266 269 272 276
237 240 242 242 238 241 240 242 244 245 251 269 274 242 234 232 234 241 255 259 257 263 263 261 262 263 266 266 264 261 260 261 262 262 263 266 269 271
234 235 241 236 237 238 237 240 244 252 250 258 272 255 240 235 239 254 254 255 263 261 262 264 264 265 266 267 268 268 265 263 261 260 262 264 267 271
247 240 240 236 237 232 234 234 237 241 244 248 263 256 242 235 219 237 257 241 256 264 263 268 269 269 267 267 268 269 268 265 262 258 260 262 265 269
252 249 247 248 251 247 242 232 228 232 237 245 258 257 245 229 229 232 249 259 260 243 253 262 261 256 257 261 265 265 267 266 265 263 263 265 266 268
249 251 252 252 254 256 258 254 243 236 234 236 249 246 248 241 239 237 242 256 262 235 237 262 250 250 252 241 261 268 270 272 271 271 270 270 269 269
248 248 257 257 264 253 259 261 258 255 249 241 243 242 242 233 229 237 235 238 255 251 246 264 245 252 253 258 265 269 274 274 273 272 273 274 272 271
249 248 247 251 254 255 250 253 251 253 252 247 244 247 242 231 222 230 238 254 272 251 224 260 258 257 268 257 260 264 269 272 273 274 276 277 278 275
255 251 249 245 256 261 254 250 256 258 262 256 256 257 257 258 248 229 226 236 259 255 227 239 260 276 271 262 257 260 267 271 275 277 278 277 277 278
258 256 257 257 261 262 249 241 250 254 256 262 262 262 255 250 249 229 215 225 243 252 221 219 250 288 283 263 253 259 267 271 274 277 280 281 281 280
256 256 257 264 265 266 264 248 253 259 250 245 244 248 246 237 233 229 225 223 227 242 224 219 240 250 256 276 275 261 259 269 271 271 274 279 283 281
259 261 260 268 270 273 270 266 266 265 248 241 243 241 240 241 241 235 238 242 241 245 227 219 236 238 251 267 273 263 255 261 269 274 274 276 280 281
263 270 274 275 275 274 272 271 265 254 238 234 240 243 242 243 247 247 249 249 255 251 237 230 232 239 241 255 265 268 276 271 258 259 265 269 270 272
271 273 279 279 276 274 273 270 256 245 240 239 242 248 248 241 241 237 241 237 249 260 244 233 231 231 244 255 257 263 261 258 259 265 268 270 267 261
278 272 271 273 258 259 263 261 251 247 249 247 248 251 253 251 252 244 237 237 242 250 257 252 237 238 244 246 252 254 258 262 259 262 266 270 268 262
283 270 268 264 262 263 262 259 255 249 246 249 252 253 253 253 254 251 243 236 243 249 250 243 240 280 288 267 237 244 249 256 265 265 265 267 272 267
277 266 262 261 262 262 259 257 257 258 254 246 248 254 256 254 254 250 247 248 248 251 251 240 227 226 251 271 272 247 249 259 264 263 259 259 267 271
270 266 264 262 261 260 260 264 267 267 261 256 256 254 252 251 251 250 245 244 252 255 257 247 232 226 234 251 267 274 261 249 248 259 266 270 272 277
277 276 272 269 270 266 260 258 257 259 260 258 257 258 259 258 256 254 250 255 259 255 253 256 254 268 274 261 268 274 274 267 270 265 264 273 282 282
274 275 278 277 274 269 265 261 260 260 258 256 255 254 254 254 256 258 255 251 251 253 261 265 264 261 237 240 258 270 281 288 293 294 283 268 260 259
271 268 271 272 267 269 269 266 263 261 257 255 257 255 255 259 260 259 257 253 252 252 257 262 260 255 251 248 256 266 273 285 299 304 297 296 294 286